Retour au catalogue

STARLINK-11310

ActifCommunicationsVLEO
NORAD 61212·PAYLOAD·🇺🇸 United States

Lancé Sep 20, 2024 depuis Vandenberg Space Force Base

Loading…

Prochains Passages (prochaines 24 heures)

TLE

FraisSource: CelesTrak SupGP

Époque: Sep 15, 2026, 01:54 UTC

1 61212C 24171N   26258.07965278  .00008806  00000+0  72531-4 0  2585
2 61212  53.1565 322.8770 0001158 101.7557 172.0801 15.69708235    15

Suivez STARLINK-11310 en temps réel avec AllMySat

Download on the App Store